Precipitable_Water
0.34 0.34 0.35 0.34 0.34 0.34 0.35 0.35 0.35 0.35 0.33 0.31 0.30 0.28 0.26 0.24 0.22 0.22 0.22 0.22 0.23 0.24 0.24 0.23 0.24 0.24 0.23 0.21 0.20 0.18 0.17 0.17 0.16 0.16 0.15 0.15 0.14 0.13 0.13 0.13 0.14 0.14 0.14 0.14 0.14 0.15 0.15 0.16 0.17 0.18 0.18 0.19 0.20 0.21 0.22 0.22 0.23 0.23 0.23 0.24 0.25 0.25 0.25 0.26 0.27 0.26 0.25 0.24 0.23 0.25 0.25 0.28 0.30 0.33
0.35 0.35 0.34 0.34 0.34 0.35 0.34 0.34 0.35 0.34 0.33 0.32 0.30 0.29 0.27 0.26 0.24 0.23 0.21 0.21 0.23 0.23 0.25 0.25 0.23 0.25 0.24 0.22 0.20 0.19 0.17 0.17 0.17 0.16 0.16 0.15 0.14 0.14 0.14 0.14 0.13 0.13 0.13 0.13 0.14 0.14 0.15 0.15 0.16 0.17 0.18 0.18 0.19 0.20 0.21 0.21 0.22 0.22 0.23 0.23 0.25 0.25 0.25 0.25 0.25 0.24 0.25 0.26 0.25 0.24 0.25 0.26 0.28 0.31
0.35 0.34 0.34 0.34 0.33 0.34 0.34 0.35 0.34 0.33 0.33 0.31 0.30 0.28 0.28 0.27 0.26 0.24 0.23 0.21 0.22 0.24 0.24 0.25 0.25 0.25 0.25 0.24 0.22 0.20 0.19 0.18 0.17 0.17 0.16 0.16 0.15 0.14 0.14 0.13 0.13 0.12 0.12 0.12 0.12 0.13 0.14 0.15 0.16 0.17 0.17 0.18 0.18 0.19 0.19 0.20 0.21 0.21 0.22 0.23 0.24 0.25 0.24 0.25 0.25 0.25 0.25 0.25 0.25 0.26 0.25 0.26 0.26 0.28
0.35 0.34 0.34 0.34 0.34 0.34 0.34 0.34 0.33 0.32 0.32 0.32 0.30 0.29 0.28 0.28 0.27 0.26 0.24 0.22 0.22 0.24 0.24 0.24 0.24 0.25 0.25 0.25 0.23 0.21 0.20 0.19 0.18 0.17 0.17 0.16 0.15 0.14 0.13 0.12 0.11 0.11 0.11 0.11 0.12 0.12 0.13 0.14 0.15 0.16 0.16 0.17 0.18 0.18 0.19 0.20 0.21 0.21 0.22 0.23 0.24 0.25 0.26 0.26 0.26 0.26 0.27 0.26 0.27 0.26 0.26 0.27 0.25 0.28
0.33 0.33 0.34 0.34 0.34 0.34 0.33 0.32 0.32 0.33 0.32 0.31 0.30 0.29 0.29 0.28 0.28 0.26 0.24 0.23 0.23 0.24 0.24 0.24 0.24 0.25 0.25 0.24 0.24 0.21 0.20 0.19 0.18 0.17 0.17 0.16 0.14 0.13 0.12 0.11 0.11 0.11 0.11 0.11 0.11 0.12 0.13 0.14 0.15 0.15 0.16 0.17 0.17 0.18 0.19 0.19 0.19 0.20 0.20 0.21 0.22 0.23 0.24 0.25 0.26 0.25 0.24 0.26 0.26 0.27 0.26 0.26 0.27 0.27
0.32 0.32 0.32 0.34 0.34 0.33 0.32 0.32 0.31 0.31 0.32 0.31 0.29 0.28 0.29 0.29 0.28 0.27 0.25 0.24 0.23 0.22 0.24 0.24 0.24 0.24 0.24 0.23 0.23 0.21 0.20 0.19 0.18 0.17 0.16 0.15 0.14 0.13 0.12 0.11 0.11 0.11 0.10 0.10 0.11 0.12 0.13 0.14 0.14 0.15 0.15 0.16 0.16 0.17 0.17 0.18 0.19 0.20 0.20 0.21 0.21 0.22 0.23 0.25 0.26 0.26 0.26 0.26 0.27 0.26 0.26 0.26 0.25 0.27
0.33 0.32 0.32 0.33 0.34 0.33 0.32 0.31 0.30 0.31 0.30 0.30 0.29 0.27 0.27 0.26 0.26 0.26 0.26 0.25 0.23 0.22 0.22 0.23 0.23 0.23 0.24 0.23 0.22 0.22 0.20 0.19 0.19 0.17 0.15 0.14 0.13 0.13 0.12 0.11 0.11 0.10 0.10 0.11 0.12 0.13 0.13 0.14 0.14 0.14 0.14 0.15 0.15 0.15 0.16 0.16 0.17 0.17 0.18 0.19 0.19 0.20 0.21 0.23 0.24 0.24 0.25 0.25 0.26 0.26 0.27 0.26 0.25 0.28
0.33 0.32 0.32 0.32 0.32 0.33 0.32 0.31 0.30 0.30 0.29 0.29 0.28 0.27 0.27 0.27 0.26 0.26 0.26 0.24 0.22 0.21 0.20 0.22 0.22 0.23 0.23 0.22 0.22 0.21 0.20 0.19 0.17 0.16 0.14 0.14 0.13 0.12 0.12 0.11 0.10 0.10 0.11 0.11 0.12 0.12 0.12 0.12 0.13 0.13 0.13 0.13 0.13 0.13 0.14 0.14 0.16 0.16 0.17 0.18 0.18 0.19 0.21 0.22 0.23 0.24 0.24 0.25 0.24 0.24 0.25 0.26 0.25 0.25
0.33 0.33 0.32 0.32 0.32 0.32 0.32 0.31 0.30 0.29 0.28 0.28 0.28 0.27 0.27 0.27 0.27 0.26 0.25 0.24 0.23 0.22 0.21 0.21 0.22 0.23 0.22 0.22 0.21 0.20 0.18 0.17 0.16 0.15 0.14 0.13 0.12 0.11 0.11 0.11 0.11 0.11 0.12 0.12 0.11 0.11 0.10 0.10 0.10 0.11 0.11 0.11 0.12 0.12 0.13 0.14 0.15 0.16 0.16 0.17 0.17 0.19 0.21 0.22 0.23 0.23 0.23 0.23 0.23 0.24 0.24 0.26 0.26 0.24
0.33 0.33 0.33 0.32 0.32 0.31 0.32 0.31 0.30 0.29 0.28 0.28 0.27 0.27 0.27 0.26 0.26 0.25 0.24 0.24 0.23 0.22 0.21 0.21 0.21 0.22 0.21 0.20 0.19 0.18 0.17 0.15 0.14 0.13 0.13 0.12 0.12 0.11 0.10 0.10 0.11 0.11 0.10 0.09 0.09 0.08 0.08 0.09 0.09 0.09 0.10 0.10 0.11 0.12 0.13 0.14 0.14 0.15 0.16 0.17 0.18 0.20 0.22 0.22 0.22 0.22 0.22 0.22 0.23 0.23 0.24 0.24 0.25 0.22
0.32 0.33 0.33 0.33 0.32 0.31 0.31 0.31 0.30 0.29 0.28 0.28 0.27 0.27 0.26 0.26 0.25 0.24 0.23 0.23 0.22 0.22 0.21 0.21 0.21 0.20 0.20 0.19 0.17 0.17 0.16 0.15 0.14 0.12 0.12 0.11 0.11 0.11 0.10 0.10 0.10 0.10 0.09 0.09 0.09 0.09 0.09 0.09 0.09 0.09 0.10 0.11 0.12 0.13 0.14 0.14 0.15 0.15 0.15 0.16 0.18 0.20 0.22 0.22 0.22 0.22 0.22 0.22 0.22 0.23 0.23 0.24 0.25 0.24
0.31 0.32 0.33 0.33 0.33 0.32 0.32 0.32 0.31 0.30 0.28 0.28 0.27 0.27 0.26 0.25 0.24 0.24 0.23 0.22 0.21 0.21 0.20 0.20 0.20 0.20 0.19 0.18 0.17 0.16 0.15 0.13 0.13 0.12 0.12 0.10 0.10 0.10 0.10 0.10 0.09 0.09 0.08 0.07 0.08 0.08 0.08 0.08 0.09 0.09 0.09 0.10 0.10 0.11 0.11 0.11 0.12 0.12 0.14 0.16 0.18 0.20 0.21 0.21 0.21 0.21 0.21 0.21 0.21 0.22 0.23 0.23 0.24 0.25
0.31 0.31 0.32 0.33 0.33 0.33 0.32 0.32 0.31 0.30 0.30 0.29 0.27 0.26 0.25 0.24 0.24 0.23 0.22 0.22 0.21 0.20 0.20 0.19 0.19 0.18 0.17 0.17 0.15 0.14 0.13 0.12 0.12 0.12 0.12 0.10 0.10 0.10 0.09 0.09 0.09 0.08 0.07 0.07 0.08 0.08 0.08 0.08 0.08 0.08 0.08 0.08 0.09 0.10 0.10 0.11 0.13 0.15 0.17 0.18 0.20 0.20 0.21 0.21 0.21 0.22 0.22 0.22 0.22 0.22 0.22 0.22 0.23 0.25
0.30 0.30 0.31 0.32 0.32 0.32 0.31 0.31 0.31 0.30 0.30 0.29 0.27 0.26 0.25 0.24 0.23 0.22 0.22 0.21 0.21 0.20 0.19 0.18 0.17 0.17 0.16 0.16 0.14 0.13 0.12 0.13 0.13 0.12 0.11 0.10 0.09 0.09 0.08 0.08 0.07 0.08 0.08 0.08 0.08 0.08 0.09 0.08 0.08 0.08 0.08 0.09 0.10 0.10 0.11 0.13 0.14 0.16 0.18 0.19 0.20 0.20 0.20 0.20 0.21 0.21 0.22 0.22 0.22 0.22 0.22 0.22 0.22 0.24
0.28 0.29 0.30 0.31 0.31 0.31 0.30 0.30 0.30 0.30 0.29 0.28 0.27 0.26 0.25 0.24 0.23 0.22 0.21 0.21 0.20 0.19 0.18 0.17 0.17 0.17 0.16 0.14 0.13 0.13 0.13 0.13 0.12 0.11 0.10 0.10 0.09 0.08 0.07 0.06 0.07 0.09 0.09 0.08 0.08 0.07 0.09 0.09 0.08 0.08 0.09 0.09 0.11 0.12 0.13 0.15 0.16 0.17 0.19 0.20 0.20 0.20 0.21 0.21 0.21 0.22 0.22 0.22 0.22 0.22 0.22 0.22 0.22 0.22
0.28 0.28 0.29 0.30 0.30 0.30 0.29 0.29 0.29 0.29 0.29 0.28 0.27 0.26 0.25 0.25 0.24 0.23 0.22 0.20 0.19 0.18 0.17 0.17 0.17 0.17 0.15 0.14 0.13 0.13 0.12 0.11 0.11 0.10 0.10 0.09 0.08 0.08 0.07 0.07 0.06 0.08 0.10 0.09 0.08 0.07 0.09 0.10 0.09 0.09 0.10 0.12 0.13 0.14 0.14 0.16 0.18 0.19 0.19 0.20 0.20 0.20 0.21 0.21 0.21 0.21 0.22 0.21 0.21 0.22 0.22 0.22 0.22 0.22
0.28 0.28 0.28 0.29 0.29 0.29 0.29 0.29 0.29 0.28 0.28 0.28 0.27 0.26 0.25 0.25 0.24 0.23 0.22 0.20 0.19 0.20 0.19 0.18 0.17 0.16 0.14 0.13 0.12 0.12 0.12 0.11 0.10 0.09 0.09 0.09 0.09 0.08 0.08 0.07 0.08 0.08 0.10 0.09 0.08 0.07 0.07 0.09 0.09 0.09 0.11 0.13 0.13 0.14 0.16 0.17 0.18 0.18 0.19 0.19 0.19 0.20 0.20 0.20 0.21 0.21 0.21 0.21 0.21 0.21 0.22 0.23 0.22 0.21
0.28 0.28 0.28 0.28 0.28 0.28 0.29 0.29 0.28 0.28 0.27 0.26 0.26 0.26 0.25 0.25 0.24 0.24 0.23 0.23 0.22 0.22 0.21 0.19 0.16 0.15 0.15 0.13 0.12 0.12 0.11 0.10 0.10 0.10 0.09 0.10 0.09 0.08 0.08 0.08 0.08 0.08 0.09 0.08 0.07 0.06 0.06 0.09 0.09 0.10 0.12 0.14 0.14 0.15 0.16 0.17 0.18 0.19 0.19 0.20 0.20 0.20 0.20 0.20 0.21 0.21 0.21 0.21 0.21 0.21 0.22 0.23 0.22 0.21
0.28 0.28 0.29 0.28 0.28 0.28 0.28 0.29 0.28 0.27 0.26 0.25 0.25 0.25 0.25 0.24 0.24 0.25 0.24 0.23 0.22 0.21 0.20 0.18 0.16 0.14 0.13 0.12 0.12 0.12 0.13 0.13 0.12 0.12 0.10 0.09 0.09 0.08 0.08 0.08 0.07 0.06 0.07 0.07 0.07 0.06 0.07 0.10 0.10 0.11 0.13 0.14 0.15 0.15 0.16 0.17 0.18 0.19 0.19 0.19 0.19 0.20 0.20 0.20 0.21 0.21 0.21 0.22 0.22 0.21 0.22 0.23 0.22 0.21
0.28 0.28 0.28 0.28 0.28 0.28 0.28 0.28 0.27 0.27 0.25 0.24 0.23 0.23 0.23 0.24 0.24 0.23 0.23 0.22 0.21 0.20 0.19 0.17 0.15 0.14 0.12 0.13 0.14 0.14 0.14 0.14 0.13 0.11 0.09 0.08 0.07 0.06 0.06 0.05 0.05 0.05 0.06 0.07 0.07 0.07 0.08 0.11 0.12 0.12 0.14 0.15 0.14 0.15 0.16 0.17 0.18 0.18 0.19 0.19 0.19 0.20 0.20 0.20 0.19 0.20 0.20 0.21 0.22 0.22 0.22 0.22 0.22 0.22
0.28 0.28 0.28 0.28 0.27 0.27 0.27 0.27 0.27 0.26 0.24 0.23 0.22 0.22 0.22 0.22 0.22 0.21 0.21 0.21 0.20 0.19 0.18 0.16 0.16 0.15 0.15 0.14 0.14 0.13 0.12 0.10 0.09 0.08 0.07 0.06 0.07 0.06 0.05 0.05 0.05 0.05 0.06 0.06 0.07 0.08 0.09 0.12 0.13 0.13 0.15 0.15 0.14 0.15 0.17 0.17 0.17 0.18 0.18 0.18 0.17 0.17 0.17 0.18 0.18 0.19 0.20 0.21 0.21 0.21 0.22 0.22 0.22 0.21
0.28 0.28 0.28 0.27 0.27 0.27 0.26 0.27 0.27 0.26 0.25 0.23 0.22 0.22 0.21 0.20 0.19 0.18 0.18 0.17 0.16 0.17 0.16 0.14 0.13 0.13 0.12 0.11 0.11 0.10 0.09 0.08 0.09 0.07 0.06 0.07 0.06 0.05 0.05 0.04 0.04 0.05 0.05 0.06 0.08 0.09 0.10 0.13 0.14 0.14 0.15 0.14 0.15 0.15 0.16 0.17 0.17 0.17 0.16 0.15 0.15 0.15 0.15 0.16 0.17 0.19 0.20 0.21 0.20 0.20 0.21 0.22 0.22 0.22
0.27 0.27 0.28 0.27 0.27 0.27 0.26 0.26 0.26 0.26 0.25 0.23 0.22 0.22 0.20 0.19 0.17 0.16 0.16 0.15 0.14 0.12 0.11 0.11 0.11 0.10 0.10 0.09 0.08 0.08 0.08 0.08 0.08 0.08 0.07 0.07 0.06 0.05 0.05 0.05 0.05 0.04 0.05 0.07 0.10 0.09 0.11 0.13 0.15 0.15 0.13 0.12 0.13 0.16 0.17 0.17 0.16 0.15 0.15 0.14 0.14 0.14 0.15 0.15 0.15 0.17 0.18 0.18 0.18 0.19 0.20 0.22 0.22 0.21
0.26 0.27 0.27 0.27 0.27 0.26 0.26 0.26 0.26 0.26 0.25 0.23 0.22 0.21 0.19 0.17 0.15 0.16 0.15 0.14 0.12 0.11 0.11 0.10 0.10 0.09 0.08 0.08 0.08 0.07 0.07 0.07 0.07 0.07 0.07 0.06 0.06 0.05 0.05 0.05 0.05 0.05 0.05 0.07 0.10 0.09 0.11 0.14 0.14 0.15 0.14 0.13 0.12 0.14 0.16 0.15 0.15 0.15 0.15 0.14 0.14 0.14 0.15 0.15 0.16 0.16 0.17 0.17 0.17 0.17 0.19 0.21 0.22 0.21
0.25 0.25 0.26 0.26 0.27 0.27 0.26 0.26 0.26 0.26 0.25 0.23 0.21 0.19 0.17 0.16 0.16 0.15 0.13 0.12 0.11 0.10 0.10 0.09 0.09 0.08 0.08 0.08 0.07 0.07 0.07 0.07 0.07 0.07 0.07 0.06 0.06 0.06 0.05 0.05 0.05 0.05 0.06 0.08 0.10 0.11 0.12 0.14 0.14 0.15 0.14 0.14 0.14 0.14 0.14 0.14 0.15 0.15 0.15 0.14 0.14 0.14 0.15 0.15 0.15 0.15 0.15 0.16 0.17 0.17 0.18 0.20 0.21 0.21
0.25 0.25 0.26 0.26 0.26 0.26 0.26 0.25 0.25 0.25 0.25 0.23 0.20 0.18 0.18 0.17 0.15 0.13 0.12 0.11 0.10 0.10 0.09 0.08 0.08 0.07 0.07 0.07 0.07 0.07 0.07 0.07 0.07 0.07 0.06 0.06 0.06 0.06 0.06 0.05 0.05 0.05 0.06 0.08 0.10 0.12 0.13 0.13 0.14 0.14 0.14 0.14 0.14 0.15 0.13 0.12 0.14 0.15 0.15 0.15 0.15 0.15 0.15 0.15 0.15 0.15 0.15 0.16 0.16 0.17 0.18 0.19 0.21 0.22
0.25 0.26 0.26 0.25 0.26 0.26 0.25 0.25 0.25 0.25 0.25 0.22 0.19 0.18 0.16 0.16 0.15 0.13 0.11 0.10 0.09 0.09 0.08 0.08 0.07 0.07 0.07 0.07 0.07 0.07 0.07 0.07 0.07 0.06 0.06 0.06 0.06 0.06 0.06 0.06 0.06 0.06 0.07 0.08 0.10 0.12 0.13 0.14 0.15 0.15 0.14 0.15 0.14 0.14 0.13 0.12 0.13 0.16 0.16 0.16 0.16 0.16 0.16 0.16 0.15 0.15 0.15 0.16 0.16 0.17 0.18 0.19 0.20 0.21
0.26 0.25 0.25 0.25 0.25 0.25 0.25 0.25 0.25 0.24 0.24 0.21 0.19 0.18 0.17 0.15 0.13 0.12 0.10 0.10 0.09 0.08 0.07 0.07 0.07 0.07 0.07 0.07 0.07 0.07 0.07 0.07 0.07 0.06 0.06 0.06 0.06 0.06 0.06 0.06 0.06 0.07 0.07 0.08 0.10 0.12 0.14 0.15 0.15 0.16 0.15 0.15 0.13 0.12 0.11 0.14 0.15 0.15 0.14 0.15 0.16 0.17 0.17 0.16 0.16 0.16 0.16 0.16 0.17 0.18 0.19 0.19 0.19 0.19
0.26 0.25 0.25 0.25 0.25 0.25 0.25 0.25 0.24 0.23 0.21 0.19 0.18 0.17 0.15 0.13 0.12 0.11 0.10 0.08 0.08 0.07 0.07 0.07 0.07 0.07 0.07 0.07 0.07 0.07 0.07 0.07 0.07 0.06 0.06 0.06 0.06 0.06 0.06 0.06 0.06 0.06 0.07 0.08 0.10 0.12 0.14 0.15 0.16 0.16 0.16 0.16 0.14 0.14 0.13 0.13 0.15 0.15 0.15 0.14 0.14 0.16 0.17 0.17 0.17 0.17 0.17 0.18 0.18 0.19 0.19 0.18 0.17 0.16
0.26 0.26 0.26 0.26 0.26 0.25 0.25 0.25 0.23 0.21 0.19 0.18 0.16 0.15 0.14 0.12 0.11 0.10 0.08 0.08 0.07 0.07 0.07 0.07 0.07 0.07 0.08 0.08 0.08 0.08 0.07 0.07 0.07 0.06 0.06 0.06 0.06 0.06 0.05 0.05 0.05 0.06 0.07 0.08 0.09 0.12 0.14 0.16 0.17 0.17 0.16 0.16 0.15 0.14 0.15 0.14 0.14 0.15 0.15 0.14 0.14 0.16 0.18 0.18 0.18 0.18 0.18 0.18 0.19 0.19 0.19 0.18 0.17 0.15
0.26 0.26 0.26 0.26 0.26 0.25 0.25 0.23 0.21 0.19 0.17 0.15 0.14 0.13 0.12 0.11 0.10 0.08 0.08 0.07 0.07 0.07 0.07 0.08 0.08 0.08 0.08 0.08 0.08 0.08 0.07 0.07 0.07 0.07 0.07 0.06 0.06 0.06 0.06 0.05 0.05 0.05 0.06 0.07 0.09 0.11 0.14 0.16 0.17 0.17 0.16 0.16 0.16 0.16 0.17 0.16 0.15 0.14 0.14 0.14 0.14 0.12 0.15 0.18 0.18 0.18 0.19 0.19 0.19 0.19 0.18 0.17 0.16 0.16
0.26 0.26 0.25 0.24 0.24 0.23 0.22 0.20 0.18 0.16 0.15 0.14 0.13 0.12 0.10 0.09 0.08 0.08 0.08 0.08 0.08 0.08 0.08 0.08 0.08 0.08 0.08 0.08 0.08 0.08 0.08 0.07 0.07 0.07 0.07 0.07 0.06 0.06 0.06 0.05 0.05 0.05 0.05 0.06 0.08 0.10 0.13 0.15 0.16 0.17 0.17 0.17 0.16 0.17 0.17 0.17 0.16 0.15 0.14 0.15 0.15 0.15 0.15 0.16 0.17 0.18 0.19 0.18 0.17 0.16 0.16 0.15 0.14 0.15
0.25 0.24 0.23 0.22 0.22 0.22 0.19 0.17 0.16 0.14 0.13 0.12 0.11 0.10 0.09 0.08 0.08 0.08 0.08 0.08 0.08 0.08 0.08 0.08 0.08 0.08 0.08 0.08 0.08 0.08 0.08 0.08 0.08 0.08 0.07 0.07 0.07 0.06 0.06 0.06 0.05 0.05 0.05 0.06 0.07 0.08 0.12 0.15 0.16 0.17 0.18 0.18 0.18 0.18 0.17 0.16 0.17 0.16 0.14 0.15 0.15 0.15 0.15 0.16 0.17 0.17 0.18 0.17 0.15 0.15 0.14 0.14 0.14 0.14
0.23 0.22 0.21 0.21 0.21 0.19 0.17 0.16 0.14 0.13 0.11 0.10 0.09 0.09 0.08 0.08 0.08 0.08 0.08 0.08 0.08 0.08 0.08 0.08 0.08 0.08 0.08 0.08 0.08 0.08 0.08 0.08 0.08 0.08 0.08 0.07 0.07 0.07 0.06 0.06 0.06 0.06 0.05 0.05 0.06 0.07 0.10 0.13 0.15 0.17 0.18 0.18 0.18 0.19 0.19 0.18 0.17 0.16 0.15 0.15 0.15 0.15 0.16 0.17 0.18 0.18 0.18 0.15 0.14 0.13 0.13 0.13 0.14 0.16
0.22 0.21 0.21 0.21 0.19 0.18 0.16 0.14 0.12 0.11 0.10 0.09 0.09 0.08 0.08 0.08 0.08 0.09 0.08 0.08 0.08 0.08 0.08 0.08 0.08 0.08 0.08 0.08 0.08 0.08 0.08 0.08 0.08 0.08 0.08 0.08 0.07 0.07 0.07 0.06 0.06 0.06 0.06 0.06 0.06 0.07 0.08 0.11 0.13 0.15 0.16 0.17 0.18 0.18 0.21 0.21 0.18 0.17 0.16 0.15 0.15 0.14 0.14 0.15 0.15 0.15 0.16 0.16 0.15 0.14 0.16 0.14 0.14 0.15
0.22 0.21 0.21 0.19 0.18 0.16 0.14 0.12 0.11 0.10 0.10 0.09 0.09 0.08 0.08 0.08 0.09 0.09 0.08 0.09 0.08 0.08 0.08 0.08 0.08 0.09 0.09 0.09 0.09 0.09 0.08 0.08 0.08 0.08 0.08 0.08 0.08 0.07 0.07 0.07 0.06 0.06 0.06 0.06 0.06 0.06 0.07 0.09 0.11 0.13 0.14 0.14 0.15 0.16 0.16 0.19 0.19 0.18 0.16 0.15 0.15 0.15 0.13 0.13 0.17 0.19 0.20 0.19 0.19 0.18 0.17 0.16 0.16 0.18
0.21 0.21 0.20 0.18 0.16 0.14 0.12 0.11 0.10 0.10 0.09 0.09 0.09 0.09 0.09 0.09 0.09 0.09 0.09 0.09 0.09 0.09 0.09 0.09 0.09 0.09 0.09 0.09 0.09 0.09 0.09 0.08 0.08 0.08 0.08 0.08 0.08 0.08 0.08 0.07 0.07 0.07 0.06 0.06 0.06 0.06 0.07 0.07 0.09 0.11 0.13 0.13 0.14 0.14 0.15 0.18 0.19 0.20 0.18 0.16 0.17 0.18 0.15 0.16 0.18 0.19 0.21 0.22 0.23 0.23 0.21 0.22 0.20 0.20
0.21 0.21 0.20 0.18 0.15 0.13 0.12 0.11 0.10 0.09 0.09 0.09 0.09 0.09 0.09 0.09 0.09 0.09 0.09 0.09 0.09 0.09 0.09 0.09 0.09 0.09 0.09 0.09 0.09 0.09 0.09 0.09 0.09 0.08 0.08 0.08 0.08 0.08 0.08 0.08 0.08 0.07 0.07 0.06 0.06 0.06 0.07 0.07 0.08 0.10 0.11 0.12 0.13 0.14 0.15 0.17 0.18 0.19 0.19 0.18 0.18 0.19 0.20 0.19 0.18 0.19 0.21 0.24 0.24 0.24 0.24 0.20 0.20 0.20
0.21 0.21 0.19 0.16 0.14 0.12 0.11 0.10 0.10 0.10 0.10 0.09 0.09 0.09 0.09 0.09 0.09 0.09 0.09 0.09 0.09 0.09 0.09 0.09 0.09 0.09 0.09 0.09 0.09 0.09 0.09 0.09 0.09 0.09 0.09 0.08 0.08 0.08 0.08 0.08 0.08 0.08 0.08 0.07 0.07 0.07 0.07 0.07 0.07 0.09 0.10 0.11 0.12 0.13 0.14 0.15 0.17 0.18 0.19 0.19 0.19 0.19 0.21 0.21 0.19 0.21 0.23 0.23 0.24 0.29 0.32 0.35 0.27 0.25
0.21 0.20 0.17 0.14 0.13 0.11 0.10 0.10 0.10 0.10 0.10 0.10 0.09 0.09 0.09 0.09 0.09 0.08 0.08 0.08 0.08 0.09 0.09 0.09 0.09 0.09 0.09 0.09 0.09 0.09 0.09 0.09 0.09 0.09 0.09 0.09 0.09 0.09 0.09 0.09 0.08 0.08 0.08 0.08 0.07 0.07 0.06 0.07 0.07 0.08 0.09 0.10 0.12 0.13 0.14 0.15 0.17 0.19 0.19 0.20 0.21 0.21 0.21 0.22 0.22 0.21 0.23 0.26 0.28 0.27 0.28 0.26 0.23 0.25
0.20 0.17 0.15 0.14 0.12 0.11 0.11 0.11 0.11 0.10 0.10 0.10 0.09 0.09 0.09 0.09 0.09 0.08 0.08 0.08 0.08 0.08 0.09 0.09 0.09 0.09 0.09 0.09 0.09 0.09 0.09 0.09 0.09 0.09 0.09 0.09 0.09 0.09 0.09 0.09 0.09 0.09 0.08 0.08 0.08 0.07 0.07 0.07 0.08 0.09 0.09 0.10 0.11 0.12 0.13 0.14 0.15 0.17 0.18 0.19 0.20 0.21 0.22 0.22 0.23 0.24 0.22 0.23 0.26 0.25 0.25 0.24 0.23 0.24
0.20 0.18 0.16 0.13 0.12 0.12 0.11 0.11 0.11 0.10 0.10 0.10 0.09 0.09 0.09 0.09 0.09 0.08 0.08 0.08 0.08 0.08 0.09 0.09 0.09 0.09 0.09 0.09 0.09 0.09 0.09 0.09 0.09 0.09 0.09 0.09 0.09 0.09 0.09 0.09 0.09 0.09 0.09 0.08 0.08 0.08 0.08 0.08 0.08 0.08 0.08 0.09 0.09 0.09 0.11 0.12 0.13 0.15 0.17 0.19 0.20 0.22 0.23 0.22 0.22 0.23 0.24 0.23 0.22 0.22 0.23 0.25 0.25 0.23
0.21 0.20 0.18 0.15 0.13 0.12 0.11 0.11 0.11 0.10 0.10 0.10 0.10 0.09 0.09 0.09 0.09 0.09 0.08 0.08 0.08 0.08 0.08 0.09 0.09 0.09 0.09 0.09 0.09 0.09 0.09 0.09 0.09 0.09 0.09 0.09 0.09 0.09 0.09 0.09 0.09 0.09 0.09 0.09 0.09 0.09 0.08 0.08 0.08 0.08 0.08 0.08 0.08 0.09 0.09 0.11 0.12 0.14 0.15 0.17 0.19 0.20 0.22 0.23 0.23 0.23 0.24 0.24 0.24 0.22 0.22 0.23 0.22 0.20
0.22 0.20 0.19 0.17 0.14 0.12 0.11 0.11 0.11 0.10 0.10 0.10 0.09 0.09 0.09 0.09 0.09 0.09 0.08 0.08 0.08 0.08 0.08 0.08 0.08 0.09 0.09 0.09 0.09 0.09 0.09 0.09 0.09 0.09 0.09 0.10 0.10 0.10 0.10 0.09 0.09 0.09 0.09 0.09 0.09 0.09 0.09 0.08 0.08 0.08 0.08 0.07 0.08 0.08 0.08 0.10 0.11 0.12 0.14 0.16 0.18 0.19 0.20 0.22 0.22 0.23 0.24 0.24 0.24 0.25 0.26 0.27 0.27 0.26
0.22 0.21 0.19 0.16 0.15 0.13 0.12 0.11 0.11 0.10 0.10 0.10 0.09 0.09 0.09 0.09 0.09 0.09 0.09 0.08 0.08 0.08 0.08 0.08 0.08 0.09 0.09 0.09 0.09 0.08 0.09 0.09 0.09 0.09 0.09 0.10 0.10 0.10 0.10 0.10 0.09 0.09 0.09 0.09 0.09 0.09 0.09 0.09 0.08 0.08 0.08 0.08 0.08 0.08 0.08 0.09 0.10 0.11 0.12 0.14 0.16 0.17 0.18 0.20 0.21 0.20 0.21 0.22 0.24 0.25 0.26 0.27 0.27 0.27
Wind_Speed
50 50 50 49 48 48 47 47 48 47 47 46 45 44 43 42 41 39 38 38 37 37 37 36 36 36 37 37 38 39 40 41 41 42 43 44 45 46 47 48 49 50 51 51 52 52 52 53 53 54 54 54 54 55 55 55 55 56 56 56 57 57 58 58 59 59 60 60 61 62 63 65 66 67
51 50 50 50 49 49 48 47 47 48 47 46 45 44 44 43 42 40 39 39 38 37 37 37 37 37 37 38 39 40 41 42 43 44 44 45 46 47 48 49 50 50 51 51 51 52 53 53 53 54 54 54 54 54 55 55 55 55 56 56 56 57 58 58 58 59 59 59 59 60 62 64 66 67
51 51 50 50 50 49 48 48 47 47 47 47 46 45 44 44 43 41 40 40 39 38 38 38 38 38 38 39 40 41 42 43 44 44 45 46 47 48 49 50 51 51 51 51 52 52 53 53 53 53 53 54 54 54 54 54 55 55 56 56 56 57 57 57 58 58 58 58 59 59 60 63 66 68
52 51 51 51 50 49 49 48 48 47 47 47 46 45 44 44 43 42 41 41 40 39 39 39 39 40 40 41 41 42 43 43 44 45 46 47 48 49 50 50 51 51 51 51 52 53 53 53 53 53 53 54 54 54 54 54 55 55 55 56 56 55 56 56 57 57 57 57 58 58 59 61 64 67
53 52 51 51 50 50 49 49 48 47 46 46 46 45 44 44 43 43 42 42 41 41 41 41 41 41 41 42 42 43 43 44 44 45 46 48 49 49 50 50 51 51 51 52 52 52 52 52 53 53 53 54 54 54 54 54 55 55 55 55 55 55 55 55 56 57 57 57 57 57 58 59 61 64
53 52 52 51 51 50 50 49 48 47 46 46 45 45 45 44 43 42 42 42 41 41 41 41 41 41 42 42 43 43 44 44 45 46 47 48 49 49 50 50 50 51 51 52 52 52 52 52 53 53 54 54 54 55 55 55 55 55 54 54 54 54 54 55 56 56 56 57 57 56 57 58 59 62
54 53 52 52 51 50 49 49 48 47 47 46 45 45 45 45 44 43 42 42 41 41 41 41 41 41 41 42 43 43 44 45 46 47 47 48 48 49 49 50 50 50 51 51 51 52 52 53 53 54 54 55 55 55 55 55 55 54 54 54 54 54 54 55 55 55 56 56 56 56 56 57 58 61
55 54 53 52 51 50 49 49 48 48 47 46 45 45 45 45 44 43 43 42 42 41 41 41 40 41 41 42 43 44 45 46 46 46 47 47 48 48 49 50 50 50 50 51 52 52 53 53 54 55 55 55 55 55 54 54 54 54 54 54 54 54 55 55 54 54 54 55 56 56 56 57 58 60
55 55 54 53 52 51 50 50 49 48 48 47 46 45 45 45 44 43 43 42 42 42 42 41 41 41 41 42 42 43 44 44 45 45 46 47 47 48 48 49 49 49 50 51 52 53 53 54 55 55 55 55 54 54 54 54 54 54 54 54 54 55 54 54 53 52 53 53 54 55 56 57 58 60
54 54 55 54 53 53 52 50 50 49 48 47 47 46 45 44 44 44 43 43 43 42 42 42 41 41 41 41 41 42 42 43 43 44 45 46 46 47 48 48 48 49 50 51 52 52 53 53 54 54 54 53 53 53 53 53 53 54 54 55 55 55 54 53 52 51 51 52 53 54 55 57 58 60
54 54 54 54 54 54 53 51 51 50 49 48 47 46 45 44 44 44 43 43 43 42 42 42 41 41 40 40 40 41 41 42 43 44 44 45 45 46 47 47 48 49 50 51 52 52 53 53 53 53 53 52 52 52 53 53 53 54 55 55 55 55 54 52 52 51 52 52 52 53 54 56 57 59
53 53 53 54 54 53 53 52 51 50 49 48 47 46 45 44 44 43 43 42 41 41 41 41 41 40 40 39 40 40 41 41 42 43 44 45 46 46 47 48 49 49 50 50 50 50 51 51 51 51 51 51 51 52 52 53 54 54 55 55 55 54 53 53 52 52 53 53 53 53 54 55 56 58
51 50 50 52 54 53 52 52 50 49 49 48 46 45 44 44 43 43 42 41 40 40 40 40 40 40 39 39 39 40 40 41 42 42 43 45 46 46 47 47 48 48 49 49 49 49 49 49 49 48 48 49 49 50 51 51 53 54 55 55 54 53 53 53 53 54 54 53 53 54 53 54 55 57
48 48 48 49 51 52 52 51 50 48 48 48 46 45 44 43 43 42 41 41 40 40 40 39 38 38 38 39 39 40 40 40 41 42 43 44 44 45 47 46 45 45 46 47 48 48 48 48 48 47 47 47 48 48 49 50 52 54 54 54 54 53 53 53 54 55 55 54 53 54 53 53 54 56
43 44 45 46 47 49 49 49 48 47 47 46 45 44 43 43 42 41 40 40 39 39 38 37 37 37 37 38 38 38 39 40 41 42 42 43 44 44 45 45 44 44 45 47 49 49 47 46 47 47 47 47 47 48 49 51 53 54 54 54 53 53 53 53 54 54 55 54 53 54 53 53 53 55
39 40 41 42 43 44 45 46 45 45 45 44 43 42 41 41 40 40 39 39 38 37 36 35 35 35 36 36 36 37 38 39 40 40 41 41 42 43 43 44 45 44 45 46 49 49 46 45 47 47 46 46 47 48 51 53 54 54 54 53 53 53 54 54 54 54 54 54 53 54 54 53 53 54
37 37 37 37 38 39 41 42 42 42 42 41 40 39 38 38 38 38 38 37 36 35 34 33 33 34 34 35 35 36 37 38 38 39 39 40 40 41 42 44 45 45 45 47 49 48 45 44 45 46 45 45 47 49 51 52 53 53 54 53 53 53 53 53 53 52 53 52 52 53 53 53 53 54
35 35 34 33 33 35 36 38 39 39 38 38 37 37 36 35 35 35 35 35 35 33 32 32 32 33 33 34 35 35 36 36 36 37 37 38 39 41 42 44 45 45 46 46 47 46 43 42 44 45 44 45 47 48 49 51 52 53 53 53 52 52 52 52 52 52 52 51 51 51 52 52 53 54
32 32 31 31 30 31 32 34 35 36 35 35 35 34 34 33 33 32 32 32 31 31 31 31 31 32 32 33 33 33 33 34 35 36 37 38 40 41 42 43 44 44 43 43 44 43 41 41 43 44 43 45 46 47 48 51 52 53 53 52 52 51 51 52 52 52 52 51 50 50 51 52 52 53
29 30 29 28 28 28 29 31 32 33 33 33 33 32 31 31 30 30 29 29 29 29 30 30 30 30 30 30 30 31 32 33 34 35 37 38 39 40 40 40 40 41 41 41 41 42 41 40 42 44 43 44 46 46 48 50 51 51 51 51 51 50 51 52 52 52 52 51 50 49 50 51 52 53
26 27 27 26 26 26 27 28 30 31 30 30 30 30 29 29 28 28 28 28 28 28 28 28 28 28 28 28 29 31 32 33 33 34 35 36 36 37 38 39 39 39 40 40 40 40 40 39 41 43 44 44 46 47 48 48 48 49 49 49 50 49 49 49 49 49 50 49 49 49 50 51 51 52
22 24 24 24 24 25 25 26 28 28 28 28 28 28 27 27 26 26 26 26 25 25 25 25 25 25 26 27 29 30 31 31 32 32 34 34 35 36 37 38 39 38 39 40 38 37 38 39 40 43 44 44 44 45 45 45 45 46 47 48 48 47 46 46 46 47 47 47 47 48 49 50 51 51
20 21 22 23 23 23 24 25 26 26 25 26 26 26 25 25 25 25 24 23 23 23 22 23 23 23 24 26 27 27 28 30 30 31 32 33 34 35 36 37 38 37 37 36 34 34 36 38 39 41 42 42 41 41 41 43 44 45 46 45 45 44 43 43 43 44 45 45 46 47 49 50 51 51
18 19 19 20 21 22 22 23 24 24 24 24 24 23 23 23 23 22 22 21 21 20 20 21 21 22 23 24 24 25 27 28 29 30 31 32 33 35 36 36 36 36 35 34 33 34 36 38 39 39 39 40 41 40 40 42 42 43 43 43 41 39 38 38 38 39 41 43 44 46 47 50 51 51
17 17 18 18 20 21 21 22 22 22 22 22 21 21 21 21 21 20 19 19 19 19 19 19 20 21 21 22 23 24 25 26 28 29 30 31 33 34 35 35 35 34 35 34 33 34 35 36 37 38 38 40 41 41 40 40 39 39 40 39 37 35 34 33 33 33 35 37 40 43 45 48 50 52
17 17 17 18 20 20 21 21 21 22 21 20 20 19 19 19 19 18 18 17 17 17 17 17 18 19 20 21 22 23 24 26 27 28 30 31 32 33 34 35 34 34 34 33 33 34 34 35 36 37 38 39 40 40 39 37 36 37 36 35 34 32 31 30 30 29 30 31 34 38 42 45 49 52
17 17 17 18 19 20 20 20 21 21 20 19 18 18 18 18 17 16 16 15 15 15 16 16 17 18 19 20 21 22 24 25 26 28 29 30 31 32 33 34 34 33 33 32 32 33 34 34 35 36 37 38 38 38 37 35 35 35 34 32 31 30 28 27 26 26 27 28 31 35 39 42 46 51
17 17 17 18 19 19 19 19 20 19 19 18 17 17 17 16 15 15 14 14 14 14 15 16 16 17 18 19 21 22 23 25 26 28 29 30 30 31 32 32 33 32 32 31 31 32 33 33 34 35 36 37 36 35 34 33 33 33 33 31 29 27 25 24 23 24 24 26 28 32 36 39 43 49
17 17 17 18 18 18 18 19 19 18 17 17 17 16 15 14 14 13 13 13 13 14 14 14 15 16 17 18 20 22 23 25 26 27 28 29 29 30 31 32 31 30 30 30 30 31 32 33 33 34 35 35 34 32 31 31 32 31 30 29 27 25 24 22 21 22 23 25 27 31 35 38 41 47
15 16 17 17 17 17 18 18 17 16 16 15 15 14 14 13 13 12 12 12 13 13 13 13 14 15 17 18 19 21 23 24 25 26 27 28 29 30 30 31 30 29 28 28 29 30 31 32 32 33 33 32 31 30 30 30 30 29 28 27 25 23 21 19 19 20 21 24 27 30 33 37 40 45
14 15 16 16 16 17 17 16 15 15 15 14 13 13 13 13 12 12 11 12 12 12 12 13 14 15 16 18 19 21 22 23 25 26 27 27 28 29 29 30 30 29 28 28 28 29 30 31 32 32 31 31 30 29 28 28 28 27 26 25 23 20 18 17 17 19 20 22 26 29 32 36 40 44
13 14 14 15 16 16 15 15 14 14 13 13 13 13 13 12 11 11 11 11 11 11 11 12 13 14 16 17 19 21 22 23 24 25 26 26 27 28 28 28 28 28 28 28 29 29 30 30 31 31 30 29 29 28 26 25 25 26 26 23 21 18 15 13 13 16 19 21 24 28 31 35 39 43
13 13 14 15 16 15 15 14 14 13 13 13 13 12 12 11 11 10 10 10 10 10 11 12 13 14 16 17 19 21 22 23 24 25 25 26 26 27 27 27 27 27 26 27 28 29 29 30 31 30 29 28 27 26 23 22 23 24 24 21 19 16 12 9 9 12 16 19 23 26 30 33 38 42
13 13 14 15 15 14 14 13 13 13 13 13 13 12 11 11 11 10 10 10 10 10 11 12 13 14 16 17 19 21 22 23 24 24 25 25 26 26 26 26 27 27 25 26 27 28 28 29 30 29 28 26 25 22 20 21 22 23 22 19 17 15 10 6 5 8 13 18 22 25 28 32 36 40
13 13 13 14 13 13 13 13 13 13 13 13 12 12 11 11 11 10 10 10 10 10 11 12 13 14 16 17 19 20 22 23 24 24 25 25 26 26 26 25 26 26 25 25 26 27 27 27 28 27 26 25 23 20 19 19 20 20 19 17 15 12 7 2 3 6 11 17 22 25 27 30 34 37
12 12 13 12 12 12 12 12 13 13 13 13 12 12 11 11 11 10 10 9 10 10 11 12 13 15 16 17 19 20 22 23 24 24 25 25 25 26 26 25 26 26 25 24 25 25 26 26 26 25 24 23 22 20 19 20 20 18 17 15 14 11 6 1 2 6 10 15 21 24 26 28 31 34
11 12 12 11 12 12 12 12 12 13 13 12 12 11 11 11 10 10 10 10 10 10 11 12 13 15 16 17 19 20 21 22 23 24 24 25 25 25 25 25 25 25 25 25 24 24 24 24 24 23 22 22 21 19 19 20 19 17 15 14 12 10 7 3 3 6 9 13 19 22 24 26 29 32
10 11 11 11 11 11 12 12 12 12 12 12 11 11 11 10 10 10 10 10 10 11 11 12 13 15 16 17 19 20 21 22 23 24 24 24 25 25 25 25 25 25 25 25 24 23 23 23 23 22 21 20 19 18 19 19 19 17 14 12 10 8 6 4 5 6 8 12 16 19 22 24 27 30
10 10 10 10 11 11 11 12 12 12 12 12 11 11 11 10 10 10 10 10 11 11 12 13 14 15 16 17 19 20 21 22 23 24 24 24 24 24 24 24 24 24 24 24 23 23 23 22 22 22 20 19 18 18 18 18 17 16 14 11 9 7 5 4 4 6 8 10 13 16 19 22 25 28
9 9 9 10 10 11 11 11 12 12 11 11 11 11 11 11 11 10 11 11 11 11 12 13 14 16 17 18 19 20 21 22 22 23 24 24 24 24 24 24 24 23 23 23 23 23 22 22 22 22 20 19 18 17 16 16 15 15 13 10 8 6 4 3 3 5 7 9 12 15 18 20 23 26
8 8 8 9 10 10 11 11 11 11 11 11 11 11 11 11 11 11 11 11 11 12 13 14 15 16 17 18 19 20 21 22 22 23 23 23 24 24 23 23 23 23 22 22 22 22 22 22 21 21 20 18 17 16 15 14 14 13 12 10 8 6 4 3 3 5 7 8 11 15 18 19 22 24
8 7 8 8 9 9 10 10 11 11 10 10 10 10 11 11 11 11 12 12 12 13 14 15 16 17 18 19 19 20 21 22 22 23 23 23 23 24 23 23 23 23 22 21 22 22 22 21 21 20 19 18 16 15 13 13 12 11 11 10 8 6 4 3 3 5 6 7 11 14 16 18 21 23
8 7 7 8 8 8 9 10 10 10 10 10 10 10 11 11 11 12 12 13 13 14 15 16 17 18 19 19 20 21 21 22 22 23 23 23 23 23 23 23 23 22 22 22 22 22 22 21 20 19 18 17 16 14 13 12 11 10 10 9 8 6 3 2 3 5 7 8 10 13 14 16 19 22
7 7 7 8 8 8 9 10 10 10 10 10 10 11 11 11 12 12 13 14 14 15 16 17 18 19 19 20 20 21 22 22 22 22 23 23 23 23 23 23 23 22 22 22 22 22 21 21 20 18 17 16 15 14 13 11 10 9 9 8 7 5 3 1 3 6 7 8 9 11 12 15 18 21
6 7 7 8 8 9 9 10 10 10 10 10 11 11 11 12 12 13 14 14 15 16 17 18 19 19 20 21 21 22 22 23 23 23 23 23 23 23 23 23 23 23 22 22 21 21 21 20 20 18 17 16 15 14 13 11 10 9 9 7 6 4 2 1 3 6 7 8 9 10 12 14 16 19
Wind_Direction
252 252 251 251 253 253 253 252 252 252 252 252 253 253 253 255 257 258 259 260 260 260 259 261 263 264 265 267 268 270 271 273 275 276 278 278 280 281 283 283 284 284 283 282 282 281 281 280 280 279 278 278 278 278 278 278 277 277 277 276 276 275 274 273 272 270 268 266 264 261 258 253 250 247
252 251 250 250 252 252 252 252 252 251 252 252 252 252 252 253 255 257 259 260 260 260 260 261 263 264 266 267 269 271 273 274 276 278 279 280 281 283 284 285 285 285 284 283 283 282 281 281 280 280 279 278 279 278 278 278 277 277 277 277 277 276 274 273 271 270 268 266 264 262 258 253 249 246
251 250 250 250 251 252 252 251 251 251 251 251 251 251 252 253 254 255 258 259 260 260 261 262 263 265 266 268 270 272 274 275 277 279 280 281 282 284 285 285 285 285 285 284 283 283 282 282 281 280 280 279 279 279 278 278 277 277 278 277 277 276 275 273 271 269 267 266 264 262 259 254 249 246
251 251 250 250 251 251 251 250 250 250 250 250 250 250 251 252 253 254 257 259 260 260 261 263 264 265 267 269 271 273 275 276 278 279 281 282 283 285 285 286 286 286 286 285 284 283 283 282 282 281 280 279 279 279 278 278 278 278 278 277 277 277 276 274 272 269 267 265 263 262 259 255 250 245
250 250 250 250 250 250 250 249 249 248 248 249 249 250 250 252 253 254 256 258 260 261 262 263 265 266 268 270 272 274 276 277 279 280 282 283 284 285 286 286 287 287 286 285 285 284 283 283 283 282 281 279 279 279 278 279 279 278 278 277 276 276 275 274 272 270 267 264 263 261 259 255 251 246
249 249 249 249 249 248 248 248 247 247 247 248 248 249 249 251 252 253 255 258 260 261 262 264 265 267 268 270 272 274 276 277 279 281 282 283 284 285 286 287 287 287 287 286 285 285 284 284 283 282 281 280 279 279 279 279 279 278 278 277 276 276 275 274 273 270 267 264 262 261 259 255 251 246
248 248 248 248 247 247 246 247 247 246 246 247 248 249 249 250 252 253 255 257 260 261 263 264 266 268 269 271 272 274 276 278 280 281 282 283 284 286 287 287 287 287 287 286 286 286 285 285 284 283 282 280 280 280 280 279 279 278 278 277 277 276 275 275 273 270 267 264 262 260 258 255 251 246
247 247 247 247 246 245 245 245 246 246 246 247 247 248 250 250 251 253 254 257 259 261 263 264 266 268 270 271 273 274 277 279 280 281 282 284 285 287 287 288 288 288 287 287 287 287 286 285 284 283 282 281 280 280 280 279 279 278 278 277 277 277 276 275 272 270 267 265 262 259 257 255 251 247
246 246 245 245 245 245 245 245 245 246 246 246 247 248 249 250 251 253 254 256 258 260 262 264 267 269 270 272 273 275 277 279 280 281 283 285 286 288 288 288 289 288 288 289 288 287 286 285 284 283 282 281 280 280 280 279 279 279 278 278 278 278 276 274 272 269 267 265 263 260 257 254 251 247
247 246 244 244 244 244 245 245 245 245 245 246 246 246 248 250 252 253 254 256 258 260 262 264 267 269 270 272 274 276 278 279 280 282 284 286 287 289 289 289 289 289 290 290 289 288 287 286 285 283 282 281 281 280 280 280 279 279 280 280 279 278 276 274 271 268 267 265 264 261 257 254 251 246
247 246 244 243 243 244 244 245 245 245 245 245 246 246 247 249 251 253 255 256 258 259 261 264 266 268 270 273 275 276 278 278 280 283 284 286 288 289 290 290 290 290 291 291 290 289 287 286 285 284 282 282 281 281 281 280 281 281 281 280 280 278 276 273 270 268 267 266 264 261 258 254 250 246
246 246 244 242 242 243 244 244 244 244 244 245 246 246 247 249 251 253 254 256 257 259 261 263 265 267 270 273 275 277 278 279 281 283 285 287 289 290 290 291 292 292 292 292 291 290 289 288 287 285 283 282 281 281 281 281 281 281 281 281 280 278 275 272 270 268 267 266 263 261 258 253 249 245
245 245 244 242 241 241 242 242 243 244 244 244 245 246 248 249 250 252 253 254 256 258 260 262 264 267 270 272 275 277 278 280 282 285 286 288 289 290 291 292 293 293 293 292 292 291 290 289 288 287 285 284 282 282 282 282 282 282 282 282 280 278 275 272 271 269 268 266 263 260 257 252 249 244
244 244 244 243 240 239 240 240 241 242 243 243 245 247 248 249 249 250 251 253 255 257 259 262 264 267 269 272 274 276 278 280 283 285 287 288 289 291 292 294 294 294 294 293 293 292 291 290 289 288 286 285 284 284 284 283 283 283 283 282 280 277 275 273 271 269 267 265 262 259 255 252 248 243
242 241 242 242 240 238 239 239 239 240 241 243 244 246 247 247 248 249 250 252 254 256 259 262 264 266 268 271 274 276 279 281 284 286 287 289 290 292 294 295 296 296 295 294 294 294 292 290 289 287 286 285 285 284 284 284 284 284 283 281 279 277 275 272 270 268 266 265 262 258 254 250 247 242
241 239 239 239 239 238 237 237 237 238 239 241 242 244 245 245 246 248 250 252 253 255 258 262 264 266 268 271 273 276 280 282 284 287 288 290 291 292 294 295 296 297 296 295 294 295 293 290 288 288 286 286 286 286 286 285 285 284 283 281 279 276 274 272 269 267 265 263 261 257 253 249 245 241
238 237 236 237 237 236 235 235 235 237 238 239 239 240 242 243 245 247 249 251 252 255 258 260 262 265 267 270 274 278 280 283 285 287 289 290 291 292 294 295 297 298 298 297 296 295 293 290 289 288 287 287 288 288 287 287 285 284 283 282 280 278 275 273 269 266 264 262 260 256 251 247 243 240
235 234 234 234 234 233 232 232 233 234 234 236 236 238 240 242 245 246 248 250 252 254 257 258 261 264 268 271 275 278 281 283 286 288 289 291 293 294 295 297 298 298 298 298 296 295 293 292 290 290 289 290 290 289 289 288 287 286 285 283 282 279 276 273 269 266 263 261 259 255 249 244 241 238
232 231 230 230 230 230 230 230 230 230 231 232 234 236 238 241 244 246 248 249 250 252 255 257 261 265 269 273 276 279 283 285 287 288 290 292 294 295 297 298 299 300 299 298 296 295 295 294 293 292 292 292 292 291 290 290 288 288 286 285 283 281 277 274 270 266 262 260 257 253 247 242 239 236
229 228 226 226 226 227 227 228 227 227 228 230 232 234 237 240 242 244 245 246 247 250 254 258 262 266 269 273 277 281 284 286 288 290 292 294 296 297 299 300 301 302 301 299 296 295 296 296 295 295 295 294 294 293 293 291 290 289 287 286 285 282 278 274 270 264 261 258 255 251 245 240 237 234
225 223 222 223 224 225 226 226 225 224 225 228 230 233 235 237 239 241 243 245 247 251 255 259 263 267 270 275 280 283 286 287 289 292 294 296 298 300 301 303 304 304 302 300 298 295 296 297 297 297 297 296 296 295 295 293 292 290 289 288 287 284 279 274 268 262 258 255 252 248 243 238 235 232
219 218 219 221 222 223 223 222 221 221 223 226 228 230 231 233 236 239 242 245 248 252 256 259 263 268 273 279 283 285 288 290 291 293 295 297 300 301 303 305 306 305 303 302 299 296 297 299 299 299 300 299 298 297 297 296 294 293 292 290 289 286 281 274 267 261 257 254 251 246 240 236 233 229
215 216 217 217 217 218 218 217 218 220 221 223 225 227 229 232 235 238 241 245 248 251 254 259 265 271 276 281 284 287 290 292 293 295 297 299 301 303 305 306 307 306 305 304 302 299 300 302 302 302 303 302 302 302 300 299 297 295 294 292 291 288 282 275 267 261 256 252 248 243 237 233 229 225
211 211 212 212 211 212 212 213 215 217 218 220 223 225 229 232 234 237 239 242 245 249 254 261 268 274 279 283 286 289 292 294 296 298 300 302 303 304 306 307 307 306 306 305 303 302 303 304 304 304 304 304 305 306 305 303 300 299 297 294 292 289 283 276 269 261 255 250 245 239 234 230 226 222
207 206 207 208 206 206 208 212 215 215 215 218 222 225 228 231 231 233 236 238 243 249 258 266 272 277 281 285 289 292 295 297 299 302 304 305 306 307 307 308 308 306 306 306 305 304 305 306 305 306 305 304 304 306 307 307 306 305 303 298 294 290 285 278 271 262 254 247 240 235 230 227 223 219
204 203 203 203 203 203 206 210 213 213 214 219 222 224 226 226 226 228 232 238 245 254 262 269 275 279 284 289 292 295 298 301 303 305 307 308 309 309 309 309 309 307 308 309 307 306 307 307 307 308 308 307 307 306 306 308 309 309 307 301 296 292 287 279 271 262 253 243 236 230 226 223 220 216
201 199 200 201 201 202 205 209 211 211 213 216 219 219 219 219 219 224 232 240 249 258 265 271 276 282 288 292 296 299 302 305 306 308 310 311 312 313 312 312 310 309 309 310 310 309 308 308 309 309 309 309 309 307 305 307 310 311 309 303 297 293 288 280 270 260 250 240 233 227 223 220 216 213
199 199 201 201 201 202 205 206 206 206 207 210 212 212 212 214 218 226 235 244 252 260 266 273 279 286 292 296 300 303 306 308 310 311 312 313 314 316 316 315 314 312 312 312 313 313 311 310 310 311 311 310 308 307 307 308 311 313 312 307 299 293 288 279 267 256 246 237 230 224 219 216 212 208
199 200 200 199 199 199 199 199 199 201 203 206 207 208 210 215 222 230 238 247 255 261 268 276 284 290 295 300 303 306 309 311 312 314 315 315 317 318 319 319 318 316 316 316 317 317 315 313 314 314 314 312 309 307 309 313 315 316 314 310 303 294 287 278 263 251 241 232 225 220 215 212 208 205
196 196 195 194 194 193 192 193 195 198 201 203 204 208 213 219 226 234 242 249 256 263 272 281 288 294 299 303 306 309 311 314 316 317 318 319 320 322 322 323 322 321 321 321 320 320 319 318 318 318 316 316 313 309 311 316 319 319 316 313 308 299 288 276 261 247 236 227 221 216 212 208 205 202
191 190 190 188 187 186 187 190 194 197 200 204 207 211 216 222 229 237 245 251 259 267 275 284 291 298 303 306 309 312 315 317 319 320 321 321 323 324 325 325 324 324 325 325 325 324 324 323 323 321 318 317 317 315 315 319 321 322 320 318 315 307 293 277 259 242 230 222 215 210 207 204 202 200
186 185 183 182 182 184 187 191 196 200 203 207 209 213 219 225 232 239 246 253 262 270 278 287 295 301 305 309 313 316 318 320 322 323 324 324 325 326 326 326 326 325 326 328 329 329 328 328 328 325 321 319 319 319 320 322 324 325 324 323 321 316 302 280 255 234 221 214 208 205 203 201 198 196
180 180 180 180 182 187 191 194 198 202 204 207 211 215 221 228 235 242 248 255 264 273 282 291 298 304 308 312 316 319 321 323 324 326 326 327 327 328 328 328 328 327 326 328 330 332 333 332 332 331 329 326 323 322 323 326 329 330 329 328 327 325 312 284 250 224 210 204 201 199 198 197 195 194
178 179 180 182 185 189 193 196 200 203 205 209 213 218 223 230 237 243 249 257 267 276 285 293 299 305 310 315 319 322 323 325 327 328 328 329 329 330 330 330 330 330 328 329 331 333 335 335 336 337 337 337 335 332 331 333 334 334 334 334 333 331 321 288 241 213 199 195 194 193 192 192 192 192
177 179 182 187 190 193 197 200 203 206 209 212 215 219 225 232 238 244 251 259 269 278 287 295 301 307 313 317 320 323 325 326 328 329 330 331 331 332 332 331 331 332 331 330 332 334 336 336 338 339 341 343 344 345 345 345 343 340 340 343 345 344 335 300 205 189 189 189 188 188 188 188 189 190
179 184 186 190 194 198 202 205 207 209 212 215 217 221 227 233 239 246 253 261 271 280 288 297 303 308 314 318 321 324 326 327 329 330 331 332 332 333 333 333 333 334 333 332 333 336 337 338 340 341 342 344 345 349 352 354 352 349 348 350 357 3 4 12 154 161 173 181 184 186 186 185 187 189
183 188 191 194 198 202 205 208 210 211 213 216 220 225 230 235 240 247 255 263 272 282 290 298 304 310 315 318 321 324 326 327 329 330 331 332 333 333 333 334 335 336 336 335 336 338 339 340 341 343 344 343 344 346 350 353 356 357 355 354 359 9 22 54 127 146 159 173 181 185 186 186 188 190
185 189 194 199 203 206 208 210 210 211 214 218 223 228 233 238 243 250 258 266 275 284 292 299 306 310 315 318 322 324 326 328 329 330 331 332 333 333 333 334 335 336 337 338 338 339 341 342 343 344 345 344 343 342 346 351 356 358 358 359 2 8 26 65 110 137 154 169 178 182 184 186 188 188
187 192 197 201 204 207 210 210 210 212 216 221 227 231 236 241 247 253 260 269 277 286 294 300 306 311 314 318 321 324 326 327 329 330 331 332 333 333 333 333 334 335 337 338 339 340 341 343 344 345 345 344 342 341 344 348 353 354 356 3 10 14 29 67 106 132 150 163 171 173 176 179 182 183
188 192 198 202 204 207 210 211 213 217 221 226 232 236 240 245 250 257 265 272 280 288 295 301 307 310 314 317 320 322 325 327 328 329 330 331 332 333 333 332 333 334 335 337 339 339 340 341 342 343 344 342 341 341 342 345 350 355 358 4 13 22 34 65 111 138 151 161 167 169 171 174 178 180
190 194 200 205 208 211 213 214 218 222 226 230 236 240 244 251 256 262 269 275 282 290 297 302 307 310 313 315 318 321 323 326 327 328 329 330 331 332 333 332 332 333 334 335 337 338 339 340 340 340 342 343 343 344 347 350 354 360 4 5 11 23 39 62 115 147 159 166 170 171 172 174 177 178
198 202 206 210 213 215 217 218 221 225 229 234 240 245 250 256 262 266 272 279 285 292 297 302 305 309 312 314 317 319 321 324 326 327 328 329 330 331 332 332 332 332 332 332 334 336 338 339 340 340 342 345 346 348 351 353 354 357 1 3 7 18 41 68 114 148 159 163 167 171 174 178 180 180
206 209 212 216 219 221 222 223 226 229 233 239 244 250 255 261 266 270 276 283 288 292 297 301 305 308 311 313 315 317 320 322 323 324 326 327 328 329 330 330 330 330 330 330 331 334 336 338 340 341 342 344 345 346 348 349 349 350 353 355 358 7 32 80 125 146 151 153 156 163 171 177 180 182
214 218 223 227 230 230 230 229 230 233 237 243 249 255 260 265 270 275 280 286 290 294 298 302 305 307 309 311 313 315 317 319 321 322 323 324 325 326 327 328 328 328 329 328 330 332 335 337 338 339 340 341 341 342 342 342 345 347 347 347 351 356 8 94 145 151 153 152 155 162 169 173 176 180
227 233 237 240 241 239 236 234 234 237 241 247 253 259 265 270 276 281 285 289 292 295 298 301 304 306 308 310 311 313 315 317 318 319 320 321 323 323 324 325 326 326 326 327 327 328 330 333 335 337 337 337 339 339 337 336 339 342 342 342 346 352 359 159 174 174 172 169 168 170 174 176 177 180